Location: Ferintosh
(52.7647°N, 112.9692°W)
Time: 22:51:19
(UTC+00:00)

Transit 2A - Pass Details

Date: 19 May 2024
Orbit: 593 x 959 km, 66.7° (Epoch: 12 June)

Event Time Altitude Azimuth Distance (km) Brightness Sun altitude
Rises 11:42:10 0° 305° (NW) 3,177 9.0 1.0°
Reaches altitude 10° 11:45:08 10° 322° (NW) 2,324 8.5 1.4°
Maximum altitude 11:48:59 20° 9° (N) 1,830 8.6 1.9°
Drops below altitude 10° 11:53:07 10° 55° (NE) 2,502 11.2 2.4°
Sets 11:56:26 0° 72° (ENE) 3,504 11.6 2.8°
